(520356) = 2014 GU63

Discovered at Haleakala on 2014-04-05 by Pan-STARRS 1.

Orbit

Orbit type: Main Belt

Note: WebGL enabled browser required.

epoch2022-08-09.0
epoch JD2459800.5
perihelion date2019-01-09.78777
perihelion JD2458493.28777
argument of perihelion (°)62.50832
ascending node (°)201.78402
inclination (°)2.92838
eccentricity0.1261713
perihelion distance (AU)2.3060476
Tisserand w.r.t. Jupiter3.4
ΔV w.r.t. Earth (km/sec)9.6
semimajor axis (AU)2.6390155
mean anomaly (°)300.52944
mean daily motion (°/day)0.22990100
aphelion distance (AU)2.972
period (years)4.29
P-vector [x]-0.09988263
P-vector [y]-0.92997332
P-vector [z]-0.35379808
Q-vector [x]0.99481858
Q-vector [y]-0.10011337
Q-vector [z]-0.01770032
absolute magnitude18.01
phase slope0.15
uncertainty0
referenceMPEC 2022-O05
observations used82
oppositions7
arc length (days)3780
first opposition used2011
last opposition used2022
residual rms (arc-secs)0.34
perturbers coarse indicatorM-v
perturbers precise indicator003Ek
first observation date used2011-10-20.0
last observation date used2022-02-24.0
computer nameMPCLINUX
JD of orbit computation2458237.703714
perihelion JD uncertainty (days)1.3026E-04
argument of perihelion uncertainty (°)2.8856E-05
ascending node uncertainty (°)2.0108E-05
inclination uncertainty (°)5.2978E-06
eccentricity uncertainty 6.1239E-08
perihelion distance uncertainty (AU)1.5025E-07
Minimum Orbit Intersection Distances (in AU)
for orbit epoch: 2459800.5, reference: E2022-O05
Mercury1.84342
Venus1.58092
Earth1.29217
Mars0.7999
Jupiter2.08629
Saturn6.10057
Uranus15.7095
Neptune27.009

Observations

82 total observations over interval: 2011 10 20.30826 – 2022 02 24.409881
These data are available for download (format description).

Date (UT) J2000 RA J2000 Dec Magn Location Ref
2011 10 20.30826 01 59 10.28 +11 29 15.2 21.7 V G96 – Mt. Lemmon Survey MPS 885485
2011 10 20.31280 01 59 10.03 +11 29 13.8 21.6 V G96 – Mt. Lemmon Survey MPS 885485
2011 10 20.31740 01 59 09.81 +11 29 11.0 21.3 V G96 – Mt. Lemmon Survey MPS 885485
2011 10 20.32207 01 59 09.52 +11 29 10.6 22.0 V G96 – Mt. Lemmon Survey MPS 885485
2013 01 17.48934 07 35 04.620 +17 10 36.51 21.7 w F51 – Pan-STARRS 1, Haleakala MPS 885485
2013 01 17.50465 07 35 03.735 +17 10 38.81 22.0 w F51 – Pan-STARRS 1, Haleakala MPS 885485
2013 01 17.52006 07 35 02.802 +17 10 40.78 21.8 w F51 – Pan-STARRS 1, Haleakala MPS 885485
2014 04 05.52912 14 51 51.449 -15 28 50.94 21.2 w F51 – Pan-STARRS 1, Haleakala MPS 885485
2014 04 05.53969 14 51 51.128 -15 28 48.72 21.4 w F51 – Pan-STARRS 1, Haleakala MPS 885485
2014 04 05.56081 14 51 50.472 -15 28 43.71 21.5 w F51 – Pan-STARRS 1, Haleakala MPS 885485
2014 04 23.33978 14 39 59.49 -14 05 07.0 21.0   W84 – Cerro Tololo-DECam MPS 1579788
2014 04 23.34298 14 39 59.32 -14 05 05.9   W84 – Cerro Tololo-DECam MPS 1579788
2014 04 23.34618 14 39 59.16 -14 05 04.8   W84 – Cerro Tololo-DECam MPS 1579788
2014 04 23.34938 14 39 59.00 -14 05 03.8   W84 – Cerro Tololo-DECam MPS 1579788
2014 04 23.35257 14 39 58.85 -14 05 02.8   W84 – Cerro Tololo-DECam MPS 1579788
2014 04 24.36105 14 39 09.37 -13 59 32.9 21.1   W84 – Cerro Tololo-DECam MPS 1579788
2014 04 24.36426 14 39 09.21 -13 59 31.7   W84 – Cerro Tololo-DECam MPS 1579788
2014 04 24.36745 14 39 09.05 -13 59 30.7   W84 – Cerro Tololo-DECam MPS 1579788
2014 04 24.37066 14 39 08.89 -13 59 29.6   W84 – Cerro Tololo-DECam MPS 1579788
2014 04 24.37382 14 39 08.73 -13 59 28.6   W84 – Cerro Tololo-DECam MPS 1579788
2014 04 26.21702 14 37 37.20 -13 49 19.1 20.8   W84 – Cerro Tololo-DECam MPS 1623428
2014 04 26.22014 14 37 37.05 -13 49 18.3   W84 – Cerro Tololo-DECam MPS 1623428
2014 04 26.22328 14 37 36.88 -13 49 17.3   W84 – Cerro Tololo-DECam MPS 1623428
2014 04 26.22645 14 37 36.70 -13 49 16.2   W84 – Cerro Tololo-DECam MPS 1623428
2014 04 26.22962 14 37 36.54 -13 49 15.1   W84 – Cerro Tololo-DECam MPS 1623428
2014 04 26.29603 14 37 33.06 -13 48 52.8 20.9   W84 – Cerro Tololo-DECam MPS 1579788
2014 04 26.29918 14 37 32.88 -13 48 51.8   W84 – Cerro Tololo-DECam MPS 1579788
2014 04 26.30243 14 37 32.71 -13 48 50.7   W84 – Cerro Tololo-DECam MPS 1579788
2014 04 26.30567 14 37 32.55 -13 48 49.6   W84 – Cerro Tololo-DECam MPS 1579788
2014 04 26.30882 14 37 32.38 -13 48 48.5   W84 – Cerro Tololo-DECam MPS 1579788
2014 04 29.22143 14 35 04.84 -13 32 37.3   691 – Steward Observatory, Kitt Peak-Spacewatch MPS 885485
2014 04 29.23917 14 35 03.84 -13 32 31.3   691 – Steward Observatory, Kitt Peak-Spacewatch MPS 885485
2014 04 29.25692 14 35 02.89 -13 32 25.8   691 – Steward Observatory, Kitt Peak-Spacewatch MPS 885485
2014 04 30.13241 14 34 18.04 -13 27 23.4 20.7   W84 – Cerro Tololo-DECam MPS 1579788
2014 04 30.16692 14 34 16.19 -13 27 11.8   W84 – Cerro Tololo-DECam MPS 1579788
2014 04 30.20138 14 34 14.34 -13 27 00.2   W84 – Cerro Tololo-DECam MPS 1579788
2014 05 04.13289 14 30 52.32 -13 04 51.8 20.8   W84 – Cerro Tololo-DECam MPS 1579788
2014 05 04.16736 14 30 50.47 -13 04 40.3   W84 – Cerro Tololo-DECam MPS 1579788
2014 05 04.20195 14 30 48.62 -13 04 28.6   W84 – Cerro Tololo-DECam MPS 1579788
2014 05 09.37526 14 26 27.680 -12 35 59.41 20.5 i F51 – Pan-STARRS 1, Haleakala MPS 885485
2014 05 09.38793 14 26 27.000 -12 35 55.35 20.3 i F51 – Pan-STARRS 1, Haleakala MPS 885485
2014 05 09.40061 14 26 26.341 -12 35 51.44 20.6 i F51 – Pan-STARRS 1, Haleakala MPS 885485
2014 06 28.28814 14 11 37.424 -10 45 55.93 21.9 w F51 – Pan-STARRS 1, Haleakala MPS 885485
2014 06 28.29823 14 11 37.636 -10 45 57.02 21.9 w F51 – Pan-STARRS 1, Haleakala MPS 885485
2014 06 28.30895 14 11 37.853 -10 45 57.97 21.9 w F51 – Pan-STARRS 1, Haleakala MPS 885485
2014 06 28.30961 14 11 37.848 -10 45 57.95 21.7 w F51 – Pan-STARRS 1, Haleakala MPS 885485
2014 06 28.31968 14 11 38.054 -10 45 59.06 22.0 w F51 – Pan-STARRS 1, Haleakala MPS 885485
2014 06 28.32034 14 11 38.062 -10 45 59.33 22.1 w F51 – Pan-STARRS 1, Haleakala MPS 885485
2015 09 11.46172 00 17 56.926 +03 54 50.85 21.6 w F51 – Pan-STARRS 1, Haleakala MPS 885485
2015 09 11.47374 00 17 56.353 +03 54 46.84 21.6 w F51 – Pan-STARRS 1, Haleakala MPS 885485
2015 09 11.48579 00 17 55.780 +03 54 42.68 21.6 w F51 – Pan-STARRS 1, Haleakala MPS 885485
2015 09 11.49945 00 17 55.112 +03 54 38.10 22.0 w F51 – Pan-STARRS 1, Haleakala MPS 885485
2015 09 18.27230 00 12 35.11 +03 13 25.1 21.1 V G96 – Mt. Lemmon Survey MPS 888703
2015 09 18.27737 00 12 34.88 +03 13 22.4 21.0 V G96 – Mt. Lemmon Survey MPS 888703
2015 09 18.28246 00 12 34.68 +03 13 20.4 21.6 V G96 – Mt. Lemmon Survey MPS 888703
2015 09 18.28754 00 12 34.35 +03 13 18.4 21.4 V G96 – Mt. Lemmon Survey MPS 888703
2015 10 08.36963 23 56 27.395 +01 03 53.10 21.7 w F51 – Pan-STARRS 1, Haleakala MPS 885485
2015 10 08.38236 23 56 26.829 +01 03 48.34 21.6 w F51 – Pan-STARRS 1, Haleakala MPS 885485
2015 10 08.40773 23 56 25.648 +01 03 39.10 21.7 w F51 – Pan-STARRS 1, Haleakala MPS 885485
2018 03 20.34679 12 11 17.55 -02 59 32.4 21.3 G G96 – Mt. Lemmon Survey MPS 885485
2018 03 20.35193 12 11 17.27 -02 59 31.7   G96 – Mt. Lemmon Survey MPS 885485
2018 03 20.35707 12 11 17.06 -02 59 28.8   G96 – Mt. Lemmon Survey MPS 885485
2018 03 20.36221 12 11 16.76 -02 59 27.1 21.2 G G96 – Mt. Lemmon Survey MPS 885485
2018 04 18.24517 11 49 34.04 +00 01 47.1 21.4 V 691 – Steward Observatory, Kitt Peak-Spacewatch MPS 885485
2018 04 18.25866 11 49 33.51 +00 01 51.0 21.2 V 691 – Steward Observatory, Kitt Peak-Spacewatch MPS 885485
2018 04 18.27216 11 49 33.05 +00 01 55.6 21.6 V 691 – Steward Observatory, Kitt Peak-Spacewatch MPS 885485
2019 07 28.47926 22 15 04.565 -06 25 11.01 21.3 w F52 – Pan-STARRS 2, Haleakala MPS 1014860
2019 07 28.49089 22 15 04.113 -06 25 13.02 21.0 w F52 – Pan-STARRS 2, Haleakala MPS 1014860
2019 07 28.50246 22 15 03.701 -06 25 15.29 21.3 w F52 – Pan-STARRS 2, Haleakala MPS 1014860
2019 07 28.51404 22 15 03.256 -06 25 17.51 21.1 w F52 – Pan-STARRS 2, Haleakala MPS 1014860
2019 08 05.42745 22 09 49.728 -06 54 34.07 21.4 w F51 – Pan-STARRS 1, Haleakala MPS 1020544
2019 08 05.43904 22 09 49.191 -06 54 36.84 21.3 w F51 – Pan-STARRS 1, Haleakala MPS 1020544
2019 08 05.45062 22 09 48.646 -06 54 40.04 21.5 w F51 – Pan-STARRS 1, Haleakala MPS 1020544
2019 08 05.46225 22 09 48.126 -06 54 43.11 21.3 w F51 – Pan-STARRS 1, Haleakala MPS 1020544
2019 09 23.30736 21 35 59.592 -10 55 27.34 22.0 w F51 – Pan-STARRS 1, Haleakala MPS 1037332
2019 09 23.31803 21 35 59.388 -10 55 29.37 21.7 w F51 – Pan-STARRS 1, Haleakala MPS 1037332
2019 09 23.32872 21 35 59.188 -10 55 31.91 21.9 w F51 – Pan-STARRS 1, Haleakala MPS 1037332
2019 09 23.33940 21 35 58.967 -10 55 33.66 21.8 w F51 – Pan-STARRS 1, Haleakala MPS 1037332
2022 02 24.371814 10 08 49.008 +07 43 44.21 21.43 w F52 – Pan-STARRS 2, Haleakala MPS 1570989
2022 02 24.385395 10 08 48.266 +07 43 48.87 21.83 w F52 – Pan-STARRS 2, Haleakala MPS 1570989
2022 02 24.397609 10 08 47.596 +07 43 53.10 21.68 w F52 – Pan-STARRS 2, Haleakala MPS 1570989
2022 02 24.409881 10 08 46.921 +07 43 57.10 21.54 w F52 – Pan-STARRS 2, Haleakala MPS 1570989